Location: Oberstdorf
(47.4188°N, 10.2969°E)
Time: 11:00:23
(UTC+01:00)

ISS - Pass Details

Date: 06 January 2018
Orbit: 402 x 407 km, 51.6° (Epoch: 18 January)

Event Time Altitude Azimuth Distance (km) Brightness Sun altitude
Exits shadow 05:13:40 15° 59° (ENE) 1,218 -0.8 -28.2°
Drops below altitude 10° 05:14:19 10° 63° (ENE) 1,470 -0.3 -28.1°
Sets 05:16:27 0° 69° (ENE) 2,333 1.0 -27.7°
